Location: Peebles
(55.6412°N, 3.1714°W)
Time: 12:48:10
(UTC+00:00)

RS-15 - Pass Details

Date: 03 December 2023
Orbit: 1893 x 2151 km, 64.8° (Epoch: 02 March)

Event Time Altitude Azimuth Distance (km) Brightness Sun altitude
Exits shadow 01:39:42 48° 38° (NE) 2,493 8.6 -51.8°
Drops below altitude 10° 01:48:11 10° 77° (ENE) 4,375 10.2 -51.1°
Sets 01:51:35 0° 82° (E) 5,346 10.8 -50.8°
